Theta_e
359 359 359 359 360 360 359 361 361 362 361 362 361 361 362 363 361 361 364 363 364 363 364 365 366 364 362 363 361 364 367 365 366 368 368 368 367 367 367 367 365 364 366 364 363 363 366 364 364 364 366 363 364 363 362 363 366 362 363 363 360 364 362 360 355 354 359 362 359 357 360 361 357 360 358 356 357 362 363 366 364 362 364 365 365
360 361 361 361 360 360 360 361 361 362 360 361 361 360 361 363 364 364 362 364 365 363 365 364 365 364 363 364 365 364 366 369 365 365 365 365 365 363 363 367 366 364 365 364 364 362 364 365 364 363 366 364 362 360 361 361 360 359 360 359 359 360 367 360 357 355 354 360 361 363 359 362 355 362 359 357 358 364 363 362 357 360 363 366 366
362 363 363 363 362 361 362 362 361 361 359 359 358 357 359 361 364 362 360 361 365 364 363 363 365 367 365 365 367 365 368 365 365 366 366 365 365 363 363 365 365 363 362 363 362 363 362 364 363 364 362 360 361 360 360 359 359 358 357 358 359 359 363 363 359 356 355 357 362 358 360 361 357 356 360 360 364 364 365 359 354 356 361 363 364
362 363 362 362 362 363 362 362 360 359 358 359 358 357 357 359 362 361 360 360 360 364 364 364 366 368 365 367 367 367 366 365 364 365 366 366 365 365 365 365 364 364 363 363 363 364 363 364 363 364 365 363 363 362 363 362 361 362 360 362 364 361 363 363 364 360 358 355 361 359 360 359 357 358 359 362 360 363 361 358 354 358 361 360 362
361 362 362 361 362 362 362 362 360 361 362 360 358 358 357 358 360 360 360 359 360 361 365 366 366 366 362 363 365 366 365 365 365 363 364 364 365 363 364 366 365 365 364 365 364 365 364 363 363 365 366 363 362 361 361 362 362 361 360 362 362 361 362 362 363 363 360 358 359 364 365 362 360 360 362 359 360 363 367 357 353 357 362 358 357
361 361 361 360 361 361 360 360 360 362 363 363 362 358 358 359 359 360 360 359 361 360 361 362 363 365 365 364 364 366 367 367 367 366 362 363 364 364 364 365 364 365 365 364 364 365 364 364 364 365 364 363 361 361 364 362 361 360 359 360 361 362 361 362 364 363 361 360 361 358 364 357 357 359 362 362 358 357 358 354 351 357 360 357 355
360 360 361 360 360 361 360 360 360 361 364 364 365 363 360 359 358 358 360 359 359 358 359 361 364 363 365 364 362 364 365 364 366 367 365 364 364 364 362 363 364 364 365 363 363 364 363 364 365 366 365 363 360 360 360 360 359 359 361 361 361 360 359 360 361 360 360 359 359 361 358 359 357 355 361 363 363 359 353 348 345 352 358 359 357
360 360 359 359 360 361 361 362 363 364 365 366 366 365 362 360 360 360 360 359 358 358 358 358 360 362 362 362 363 365 365 364 365 366 365 364 363 363 364 362 361 361 365 366 364 363 366 364 363 364 365 366 364 362 362 359 361 360 359 361 360 360 357 356 359 358 358 357 356 355 356 356 357 360 360 361 360 360 355 348 344 345 351 360 360
360 359 360 359 360 362 363 364 366 366 366 366 365 366 365 363 362 362 362 360 357 358 358 357 358 359 359 361 362 362 359 360 362 363 364 365 364 362 362 362 362 362 363 361 362 366 368 366 364 363 365 365 364 363 361 361 357 358 361 362 363 362 360 359 359 359 359 357 357 360 355 355 356 357 354 355 354 352 352 351 348 348 349 355 359
360 360 360 361 362 363 363 364 364 365 365 365 365 365 364 363 362 362 361 361 362 363 362 361 359 357 357 359 359 358 357 359 364 363 361 361 362 361 361 363 363 363 363 363 361 362 363 366 367 367 366 365 365 364 363 363 362 361 362 366 367 365 362 361 359 357 354 357 354 355 352 351 354 358 354 355 358 359 353 351 346 345 348 350 356
359 360 360 362 363 363 363 363 364 363 364 365 365 364 364 363 363 363 363 361 362 363 363 360 358 356 355 355 355 355 356 351 337 337 341 347 359 361 362 364 365 365 363 365 364 361 362 364 364 364 367 367 367 366 366 366 367 367 365 365 365 367 362 359 358 358 357 355 354 355 351 353 356 358 356 353 355 353 350 350 346 347 347 342 345
358 358 359 359 357 358 359 360 360 361 363 363 364 363 362 362 362 362 362 360 363 360 358 357 358 356 355 355 354 354 350 331 330 331 334 335 343 357 361 362 362 363 364 363 362 362 362 362 362 362 362 364 364 366 367 366 367 366 366 366 365 365 364 361 358 355 358 355 354 354 353 356 358 359 354 354 356 353 352 349 350 347 347 347 349
356 353 351 349 348 349 351 355 357 357 360 361 362 362 361 361 358 358 355 356 355 355 356 358 358 357 356 357 355 353 348 328 327 329 330 332 334 349 356 359 360 360 362 363 364 364 364 363 361 360 362 364 365 361 355 355 356 360 361 362 364 364 352 351 356 362 359 359 354 353 356 358 359 359 358 357 357 351 351 348 351 349 351 347 350
350 349 350 346 344 344 348 348 346 347 349 346 348 356 355 354 355 355 354 354 354 350 351 358 359 359 357 357 356 351 343 327 325 326 327 328 332 343 356 356 356 357 358 359 359 360 361 361 361 359 360 364 366 358 354 354 357 358 362 362 363 364 365 359 355 357 361 359 356 355 362 365 360 363 364 361 353 350 348 347 352 350 350 350 352
346 348 347 343 342 344 344 345 343 344 343 344 347 345 346 348 348 348 351 355 356 357 358 358 359 359 357 355 353 344 334 320 322 323 324 326 331 347 355 356 357 358 359 360 361 360 362 361 363 362 363 363 359 356 353 352 353 353 355 355 357 360 363 363 366 366 363 360 356 359 362 367 366 367 364 358 352 354 353 355 354 353 352 356 355
345 344 341 342 343 344 344 343 344 345 342 342 341 341 342 345 344 345 348 350 351 352 353 355 356 357 356 355 354 348 334 317 318 319 320 323 332 350 352 353 354 354 356 359 359 361 361 361 361 362 361 361 357 346 351 354 352 352 353 354 355 357 357 354 335 340 357 364 366 364 363 354 345 363 359 352 355 357 354 353 353 352 353 350 348
341 342 341 341 342 343 343 343 343 342 342 341 340 340 342 343 345 347 345 346 348 350 352 353 355 354 352 352 351 347 338 321 315 316 317 319 337 350 352 352 353 354 354 356 357 357 358 359 358 356 357 357 353 333 335 347 353 351 352 351 352 354 351 344 336 334 330 326 327 329 327 327 328 326 326 326 347 351 353 349 349 349 347 343 343
339 337 337 340 341 341 341 343 343 342 340 341 342 341 342 343 344 346 347 346 345 347 349 351 349 349 348 346 346 340 334 322 313 314 315 316 331 346 349 350 350 352 352 353 355 355 356 355 356 355 355 356 339 331 328 341 351 351 350 349 350 352 352 343 340 341 331 329 331 331 328 328 330 332 335 332 328 340 353 347 349 347 345 344 340
332 333 334 337 339 341 341 340 339 340 341 343 342 340 341 343 344 344 344 343 341 343 345 343 339 340 340 339 336 335 331 325 313 312 312 314 329 343 343 345 345 345 344 345 347 349 351 351 344 337 336 327 314 316 319 328 338 346 350 351 348 346 351 346 343 342 340 339 339 339 348 345 353 355 355 340 338 348 355 353 349 346 343 340 339
329 331 332 334 335 337 339 340 339 339 339 340 340 340 342 343 342 341 340 339 337 337 336 335 334 333 333 333 333 331 329 325 319 310 310 312 316 335 338 337 336 337 339 341 342 345 345 345 341 320 316 314 310 310 313 317 329 335 342 346 345 344 341 339 343 340 335 335 334 335 338 344 348 352 351 355 351 354 356 351 348 344 341 337 336
325 325 326 328 331 332 334 335 335 336 337 339 340 340 340 339 339 339 338 338 336 334 333 333 332 331 332 333 332 328 326 325 324 309 309 309 311 322 331 329 329 332 334 336 337 339 340 340 340 323 314 313 311 308 308 311 318 328 334 337 337 337 337 336 338 332 334 333 332 333 338 344 346 347 349 351 350 351 349 347 344 342 339 335 333
324 324 324 325 327 330 332 332 334 335 336 338 338 337 338 338 338 337 338 336 334 332 332 332 330 331 331 331 331 331 331 328 331 317 310 308 308 311 323 326 323 326 326 328 329 330 334 336 336 324 311 311 310 308 307 310 315 324 323 312 315 322 334 336 335 333 330 331 332 332 335 339 341 345 345 344 346 346 345 343 341 341 342 341 338
323 323 324 324 326 327 328 331 332 334 335 337 337 336 337 336 336 336 335 333 331 330 331 330 330 329 329 328 328 328 328 328 323 325 317 309 308 310 310 317 316 326 325 324 324 325 328 330 331 326 312 306 304 306 307 309 319 321 312 312 315 320 330 335 334 333 333 330 331 334 336 343 342 346 346 349 350 348 343 344 343 343 343 342 341
325 325 326 326 328 330 329 329 330 332 334 335 336 336 336 336 335 334 334 333 331 330 330 330 329 329 328 327 328 329 329 328 325 321 322 315 310 308 309 309 312 321 323 324 326 327 328 328 326 312 305 300 300 303 307 314 323 311 309 312 317 323 333 333 334 335 337 337 334 335 335 338 346 343 346 348 350 346 344 344 344 342 341 339 339
326 325 324 324 324 324 324 324 324 325 327 331 334 335 335 336 333 335 335 334 333 332 332 332 332 330 330 328 328 329 329 330 328 325 320 319 314 310 310 311 313 313 320 322 326 326 319 310 307 306 307 305 304 306 308 310 308 308 309 313 324 326 323 325 332 339 335 339 338 339 341 342 344 344 345 345 343 342 341 338 337 336 336 336 335
326 326 325 324 323 323 321 320 321 323 325 327 329 331 334 336 334 334 334 333 333 332 331 331 330 331 331 330 330 330 330 330 328 326 324 322 321 316 314 316 319 318 319 320 319 316 312 310 308 309 312 317 329 333 332 333 321 318 315 320 322 320 318 318 327 336 336 339 341 339 338 338 338 341 340 340 340 341 340 336 332 333 332 332 330
329 328 327 327 328 328 325 321 320 320 320 319 321 324 326 329 331 333 333 332 333 333 333 332 331 331 330 331 331 331 331 329 326 325 323 320 319 320 321 321 319 319 320 322 321 323 326 329 327 319 318 320 326 330 330 331 332 330 327 326 325 323 324 332 337 339 338 336 335 336 338 338 338 337 336 334 333 333 338 337 335 333 334 332 331
327 328 327 327 326 325 323 324 321 317 318 317 316 316 317 319 320 321 322 325 329 331 332 332 331 331 332 332 331 331 330 327 326 319 317 317 317 318 319 321 321 321 319 320 321 323 329 333 329 337 337 336 335 335 334 335 333 333 333 333 334 334 334 334 335 335 335 334 333 333 333 333 331 330 329 327 326 327 330 332 332 330 331 330 326
325 322 323 323 323 325 322 322 320 319 318 317 315 316 316 317 319 319 319 319 321 324 329 328 329 329 329 328 327 325 323 321 321 308 314 304 309 312 316 318 316 318 318 309 315 329 336 335 335 334 334 332 332 333 332 332 330 330 329 331 331 331 332 331 329 329 330 331 329 329 328 328 328 328 326 324 323 323 326 327 328 328 328 327 323
324 323 322 320 320 321 321 319 320 319 317 318 318 314 308 301 309 318 318 311 302 297 302 321 320 323 321 322 324 322 319 321 303 295 294 293 294 295 297 295 295 304 307 303 309 330 334 333 332 331 332 331 330 330 329 329 328 326 325 323 325 325 326 326 327 326 327 326 326 325 324 325 324 324 323 321 320 320 321 323 323 325 324 322 320
324 324 326 323 322 323 322 321 321 322 321 321 322 321 317 313 296 299 309 307 299 292 291 294 299 303 321 318 316 307 307 300 293 291 291 292 292 291 291 291 292 293 295 311 332 332 331 329 329 330 329 329 328 327 328 327 327 325 323 322 322 321 321 321 322 322 322 322 321 320 319 318 318 318 317 317 317 317 317 319 321 321 319 319 318
324 323 323 325 328 328 325 326 325 324 324 324 325 324 324 325 318 297 295 300 296 293 293 292 292 294 296 304 320 322 309 299 293 291 292 293 294 294 295 294 294 293 296 299 330 328 329 328 327 327 328 327 326 326 325 324 324 323 322 321 319 319 319 317 317 318 317 316 315 315 314 314 314 313 313 313 314 313 313 313 313 314 315 316 315
321 322 324 325 325 326 324 325 325 324 323 324 324 324 323 321 322 324 312 295 295 295 293 292 292 293 294 292 293 297 296 293 292 293 293 294 295 296 299 297 298 299 303 324 328 325 326 326 325 326 325 325 325 323 323 322 321 321 320 319 318 317 318 319 319 318 315 315 315 316 314 314 314 313 312 311 310 310 310 310 311 312 313 312 312
327 324 323 324 324 323 322 323 322 323 324 324 324 324 324 324 323 324 323 323 318 303 293 292 293 294 292 292 294 294 294 294 294 294 294 297 296 296 298 316 303 303 312 327 325 324 324 324 324 324 323 323 322 322 321 321 320 319 319 318 317 318 318 320 318 316 316 316 316 314 314 313 312 312 311 311 310 310 309 309 310 310 311 311 310
325 326 326 325 324 324 324 324 323 324 323 324 323 322 322 323 324 324 323 321 321 322 322 321 303 295 311 305 295 293 293 294 295 296 297 299 300 297 297 325 324 323 323 324 324 323 322 322 321 321 322 321 321 320 320 320 319 319 318 317 317 317 316 315 314 315 315 314 312 312 312 311 311 309 308 307 308 308 308 308 308 309 309 309 310
324 324 324 323 323 323 322 324 324 323 323 323 324 322 322 321 319 320 321 323 322 322 322 322 321 308 295 294 293 295 295 294 296 297 298 300 302 301 326 322 321 321 321 321 321 320 321 320 320 320 320 320 320 319 318 318 317 317 317 316 315 315 315 314 312 312 311 310 309 309 308 309 308 307 307 306 306 306 306 306 305 306 306 306 307
324 323 323 323 323 324 324 325 325 324 322 323 323 322 322 321 320 318 318 319 320 322 323 324 321 320 315 319 304 296 295 298 299 299 301 303 303 321 324 322 321 321 319 319 319 319 319 319 319 319 319 317 317 317 316 316 317 317 316 317 316 314 313 312 312 312 311 309 309 309 308 306 305 306 305 305 305 304 304 305 305 305 305 304 303
325 324 324 325 326 325 325 325 324 323 325 324 325 324 322 321 321 320 319 318 319 320 321 324 320 320 319 321 322 320 316 305 301 304 306 308 317 323 322 322 321 320 318 319 319 319 318 318 318 317 318 317 316 316 315 316 315 315 314 314 313 311 309 310 311 310 310 309 307 307 306 305 304 304 303 303 303 303 302 302 302 302 303 303 303
325 322 319 321 323 325 324 324 324 324 325 324 323 323 322 321 321 321 321 320 319 318 320 322 322 321 321 322 322 322 317 317 318 318 318 319 320 321 321 320 319 319 318 318 318 318 317 316 317 317 317 316 315 315 315 314 314 313 313 313 312 311 310 309 309 308 307 306 306 306 305 305 306 304 302 301 301 302 301 301 301 301 300 300 301
321 321 323 322 322 323 323 323 323 323 322 322 322 323 323 323 322 322 321 320 320 320 319 319 320 321 324 324 321 319 317 317 317 317 318 318 319 319 319 318 317 317 317 317 316 316 316 315 316 315 316 315 315 314 314 314 313 312 311 310 309 309 308 308 307 306 306 305 305 305 304 304 304 304 303 302 303 303 302 301 301 301 301 301 302
321 321 322 323 322 321 320 319 319 319 319 319 319 319 319 321 322 322 322 321 321 320 320 321 321 322 323 321 310 310 319 318 319 318 317 317 317 318 318 317 317 316 316 315 315 315 315 315 314 314 313 314 313 312 312 312 311 311 309 308 308 307 306 306 306 305 305 305 305 304 304 303 303 304 302 303 301 301 302 302 301 301 301 301 301
320 319 319 319 320 319 317 317 318 320 321 320 319 317 317 318 318 319 319 320 320 319 319 319 320 322 315 303 301 299 314 319 318 318 318 317 318 317 317 317 317 317 315 315 315 314 314 314 312 312 312 312 312 311 311 310 310 309 308 307 307 306 306 305 305 304 304 303 303 303 303 303 302 302 303 301 303 303 303 303 303 303 303 303 303
321 319 320 320 319 319 317 318 319 318 318 317 318 319 319 319 318 319 318 318 318 318 318 318 318 320 319 305 305 302 315 318 317 317 317 317 316 315 315 315 315 315 315 314 314 314 313 312 311 311 311 311 311 310 309 309 308 307 307 306 305 305 304 304 303 303 303 302 302 302 303 302 302 302 302 302 303 303 303 303 302 302 303 303 303
319 319 320 320 320 320 321 320 318 319 319 320 321 320 320 319 318 318 318 318 318 318 318 318 318 319 321 312 308 311 315 317 316 316 316 315 315 314 314 314 313 314 313 312 312 312 312 310 310 309 310 309 309 310 308 308 308 307 306 305 304 303 302 302 302 302 301 301 301 301 302 302 302 302 302 302 302 302 302 302 302 302 302 302 302
319 318 317 317 318 318 319 320 319 319 318 318 318 318 319 318 317 317 317 316 317 318 317 317 318 318 318 318 315 314 316 316 316 315 313 312 311 311 311 311 311 312 311 310 310 310 310 309 309 308 308 308 308 308 307 307 307 306 305 304 303 302 301 301 302 302 301 301 300 300 301 301 301 301 301 302 302 302 302 302 302 300 300 301 302
317 317 317 317 316 317 317 318 319 318 317 317 316 316 317 316 317 317 316 316 316 317 317 317 317 317 317 317 317 316 317 317 315 314 312 311 310 309 309 309 310 309 309 309 309 309 308 308 307 307 306 306 306 306 306 306 305 304 304 304 303 302 302 302 302 302 301 301 300 300 301 301 301 302 301 301 301 301 301 301 301 301 301 301 301
316 316 315 316 315 316 316 316 316 316 316 316 316 315 315 316 316 316 316 315 315 316 316 316 316 316 316 316 316 316 316 314 314 313 312 311 310 308 307 308 307 307 307 307 308 307 307 306 306 306 306 306 305 305 305 304 304 303 304 303 302 302 302 302 302 302 301 301 302 301 301 301 301 301 300 300 300 300 300 300 300 301 301 301 301
314 314 314 315 315 314 315 315 314 314 314 314 314 314 314 315 315 315 316 315 315 315 315 315 315 315 315 315 315 314 314 315 315 312 310 309 308 309 309 309 308 307 307 306 306 306 305 305 305 305 305 305 305 304 304 303 303 303 302 302 301 301 299 298 302 302 302 302 302 302 301 301 301 300 299 299 300 300 300 300 300 301 301 301 301
313 313 312 313 313 313 313 312 312 312 311 312 311 311 312 312 313 313 314 314 313 314 314 314 314 314 314 314 313 311 311 311 310 310 310 308 306 306 306 306 305 305 305 305 306 306 306 305 304 304 304 305 304 304 303 302 302 302 301 301 300 296 291 292 297 299 296 300 302 302 302 301 300 299 299 299 299 300 300 300 300 301 301 301 301
313 312 312 312 311 310 312 311 310 310 311 311 310 310 310 311 311 311 311 311 311 311 311 311 311 312 311 310 308 308 307 307 306 305 304 304 304 304 303 303 303 304 305 304 304 304 304 304 305 304 304 304 304 303 302 301 301 301 301 300 295 291 291 292 295 294 296 299 299 301 301 300 299 299 299 300 300 300 300 300 301 301 301 301 301
311 310 310 309 310 310 310 310 309 309 309 309 309 309 309 309 309 310 310 309 309 309 309 309 309 309 309 308 306 306 305 304 303 303 302 302 303 303 303 304 303 303 304 304 304 306 304 303 303 303 303 302 302 301 301 301 301 301 298 294 291 290 288 290 296 291 289 291 299 301 301 300 299 299 299 300 301 301 301 300 301 301 302 301 301
Wind_Speed
11 10 10 10 10 11 10 9 10 8 9 8 8 7 6 6 6 6 4 5 5 5 6 6 6 6 6 5 5 5 5 5 4 4 4 5 4 5 5 5 6 6 5 6 6 5 5 5 5 5 4 5 4 5 5 4 4 4 4 4 5 4 4 4 5 6 4 3 3 3 3 4 4 3 4 5 5 5 5 4 4 5 4 4 5
11 10 9 9 11 11 11 10 10 9 9 9 8 7 7 6 6 5 6 6 6 6 6 6 5 5 6 5 5 5 5 5 6 5 5 5 6 5 5 5 6 6 6 6 6 5 4 5 6 5 4 5 6 6 6 6 6 6 5 5 5 4 3 4 5 5 6 3 3 2 3 2 4 2 4 5 5 4 5 5 4 4 4 4 4
10 10 9 9 11 10 10 9 9 10 10 9 9 9 7 7 6 6 6 6 6 6 6 6 5 5 5 5 5 5 5 5 5 5 5 5 6 6 5 5 6 6 6 6 6 5 5 6 6 5 4 5 6 6 6 6 6 6 7 5 6 5 4 5 4 5 6 5 3 4 1 3 4 4 3 4 3 2 4 4 4 4 3 4 4
10 10 10 10 11 10 10 9 11 11 11 9 10 9 8 7 6 7 7 6 6 6 6 6 5 4 5 5 5 5 5 6 5 5 6 6 6 6 6 6 6 6 7 7 6 6 6 6 6 6 5 6 6 6 5 6 6 6 7 5 5 6 4 4 5 5 5 5 3 4 3 4 4 3 3 3 3 2 3 3 3 4 4 3 3
9 9 10 11 11 11 11 10 11 11 10 9 10 10 9 8 6 7 7 7 6 5 5 5 5 5 5 5 6 6 6 6 6 6 6 5 6 6 6 6 6 6 7 7 7 7 7 7 7 7 6 6 7 6 6 7 6 6 6 5 5 5 4 4 5 5 5 6 5 3 3 4 3 3 3 4 3 1 1 3 3 4 3 4 3
9 9 9 10 10 11 12 11 11 11 11 9 9 9 8 8 7 7 7 7 6 6 6 5 4 5 5 5 5 6 5 5 6 6 6 6 5 6 6 6 6 6 7 7 7 7 7 7 7 7 7 7 7 7 6 7 6 6 7 6 5 4 5 5 5 5 5 5 5 4 3 4 3 3 2 3 4 3 2 2 2 3 3 4 4
11 11 10 11 10 11 11 11 10 10 9 8 7 7 8 8 8 8 7 7 7 6 6 5 5 5 5 5 6 6 6 6 5 6 6 6 6 6 7 7 7 6 7 7 7 7 7 7 7 7 7 7 8 8 7 7 6 7 7 6 6 6 6 5 5 5 5 6 5 5 4 3 2 3 1 2 3 2 3 3 3 2 3 2 3
11 12 12 11 11 11 10 9 9 8 7 7 7 7 8 8 7 6 6 6 7 7 7 6 5 5 5 6 6 6 6 6 6 6 7 7 6 7 7 8 8 7 7 7 8 8 7 8 8 7 7 7 7 7 7 7 6 7 6 5 5 6 6 6 5 5 6 6 6 5 4 3 3 3 3 3 3 2 1 2 2 3 2 1 3
11 11 11 11 11 11 9 8 7 7 7 7 7 7 7 7 6 6 5 6 6 6 6 6 6 6 6 6 6 6 6 6 5 6 6 7 7 7 8 8 8 8 8 8 8 7 7 8 8 9 8 8 9 9 9 7 6 6 6 5 5 5 6 6 5 5 5 6 6 4 4 4 4 4 3 3 2 2 1 2 1 1 1 1 2
9 9 9 10 9 9 9 8 7 7 7 7 7 7 7 7 6 6 6 6 5 5 5 5 6 6 6 6 6 5 5 5 4 4 5 6 6 6 6 7 7 7 7 7 8 8 8 8 8 10 10 11 11 11 10 11 11 9 7 5 5 6 6 6 6 6 7 6 7 6 6 5 5 4 4 3 2 2 2 1 2 1 2 1 2
8 8 7 7 6 7 7 7 7 7 7 6 6 7 6 5 5 5 5 4 4 3 4 4 5 5 5 5 5 5 3 7 14 11 9 7 7 7 7 7 7 7 8 8 8 9 9 9 9 8 9 10 10 12 11 11 11 11 12 11 9 8 7 7 7 6 6 7 7 7 7 6 6 4 4 3 2 2 2 2 2 1 1 2 2
8 7 5 3 2 3 6 7 8 7 6 6 5 5 5 5 4 3 2 2 2 1 2 2 2 2 1 2 2 2 5 7 9 8 8 8 7 6 6 6 6 6 7 7 7 8 8 8 8 7 7 8 8 7 8 9 8 8 8 8 9 11 11 9 8 8 7 7 7 8 7 6 5 4 5 3 3 2 2 2 2 2 2 2 1
4 6 6 6 7 5 3 4 3 2 2 4 4 3 3 2 2 3 4 4 4 6 6 3 3 2 1 1 2 2 4 7 5 6 5 4 4 5 4 5 6 7 7 7 7 7 7 8 8 8 7 8 7 2 6 7 11 10 9 10 11 11 11 13 13 11 8 8 8 8 7 6 6 5 5 3 1 3 3 3 2 2 2 2 1
9 8 6 5 5 6 6 2 3 3 6 8 7 1 5 5 6 5 5 5 5 7 8 5 3 2 2 2 3 4 5 7 6 6 5 4 4 4 2 4 5 6 6 6 6 7 7 7 7 8 8 6 1 4 7 6 6 7 8 8 8 10 12 13 13 13 12 9 9 9 7 6 6 4 4 3 3 4 4 4 1 2 2 1 1
8 8 8 8 7 7 7 6 4 3 7 8 4 4 4 5 6 6 4 1 2 2 2 2 1 2 3 3 2 3 5 8 6 6 6 5 5 4 2 3 4 5 5 6 7 7 7 7 7 8 7 6 4 5 6 7 5 6 8 9 9 9 8 8 8 8 8 9 9 9 8 5 5 4 3 3 4 3 3 3 2 1 1 3 3
8 6 7 7 6 7 8 9 7 5 6 8 8 7 7 6 6 7 7 5 3 3 2 2 2 0 0 1 1 2 5 9 7 6 6 7 7 3 2 3 4 5 5 5 6 6 6 7 7 8 8 9 6 9 8 7 6 7 7 9 9 9 8 1 4 4 3 3 4 4 3 4 5 2 2 1 2 3 3 3 2 3 4 4 4
5 7 8 8 9 8 8 6 7 6 6 9 8 6 6 7 6 4 4 4 3 2 2 0 1 3 4 4 3 1 4 8 8 8 8 9 7 4 4 4 6 7 7 8 8 8 7 8 8 9 9 10 6 7 10 9 7 8 8 9 9 8 7 3 4 2 2 3 5 6 6 5 5 3 1 2 4 3 3 3 4 5 4 3 2
5 5 6 5 7 8 8 7 8 10 8 7 6 5 4 6 5 5 4 4 3 2 1 1 4 4 4 5 4 5 5 7 8 8 8 9 7 4 4 5 6 8 9 8 6 6 8 9 9 9 9 8 9 3 3 5 9 9 9 10 10 10 7 4 3 3 5 3 4 6 6 3 4 4 3 3 6 5 5 4 3 3 3 3 3
6 4 4 6 6 5 6 6 7 7 6 4 4 4 5 4 2 2 1 3 4 3 2 5 6 6 6 6 7 6 4 5 9 10 10 11 8 3 4 3 4 5 5 6 6 6 6 6 9 7 5 5 7 6 5 1 6 9 9 7 6 9 6 1 4 4 3 1 2 2 2 2 2 4 3 5 6 7 5 5 2 4 3 3 1
5 6 8 8 7 7 6 7 7 7 6 4 4 4 4 4 3 3 4 4 5 5 6 5 7 6 6 6 5 4 4 5 7 9 11 12 12 6 4 4 4 5 5 5 5 5 5 7 3 6 6 6 5 4 3 2 3 4 6 5 5 4 3 3 5 3 2 1 2 2 0 2 3 5 6 6 6 6 5 4 3 2 1 2 2
8 9 11 10 10 10 9 9 8 6 6 6 5 5 5 5 5 5 5 5 6 6 7 7 7 7 5 5 4 5 4 5 6 8 9 10 11 9 4 5 5 5 5 5 5 5 5 6 6 4 3 3 3 3 5 7 5 2 2 3 2 2 3 3 3 1 2 2 3 2 1 2 3 4 4 4 5 5 4 3 2 1 1 1 2
7 10 10 11 9 7 7 8 7 6 5 5 6 7 6 6 5 5 4 5 6 7 7 7 6 5 4 4 4 4 5 8 4 6 9 9 10 10 5 5 5 5 6 5 5 5 4 4 5 3 2 3 3 3 5 4 5 5 6 8 9 8 0 3 3 1 1 1 1 2 2 1 1 1 3 4 4 4 4 4 3 3 3 3 2
9 10 10 10 9 9 8 8 7 5 6 7 7 8 7 6 6 6 6 6 6 7 6 5 5 5 3 2 2 2 3 3 7 5 6 7 7 7 7 6 7 5 5 6 6 6 5 5 5 5 5 5 5 3 1 2 1 2 4 9 10 8 4 3 5 4 3 2 2 3 2 1 2 3 2 2 2 2 2 3 5 6 7 7 7
9 10 9 8 8 6 6 7 6 6 6 5 7 7 7 7 6 6 6 6 5 5 5 5 4 4 3 3 2 2 1 1 3 6 5 5 5 5 6 7 6 5 5 6 5 5 5 5 5 8 10 10 10 9 5 3 3 4 2 2 7 9 4 3 2 3 3 4 4 5 5 4 4 4 3 2 4 3 3 5 5 7 7 8 8
7 8 8 7 6 5 6 6 6 6 5 5 5 5 6 5 5 4 4 4 4 3 3 3 2 3 2 2 2 1 1 2 2 3 6 6 5 7 8 7 6 6 6 5 5 5 7 11 12 12 11 11 11 9 7 7 8 6 4 2 1 1 4 5 3 1 1 2 2 3 4 5 5 5 4 6 6 4 4 5 6 6 8 9 8
7 7 7 6 5 6 8 8 8 8 7 6 5 4 5 5 5 5 5 5 5 4 3 3 3 2 1 1 1 1 2 2 2 4 4 5 4 3 6 5 6 7 7 6 8 11 11 11 11 10 10 8 6 3 3 2 4 6 9 9 3 3 4 5 6 5 3 3 2 3 4 4 6 4 5 6 5 3 3 5 6 5 5 6 6
8 7 7 6 6 6 7 5 5 5 6 5 5 5 5 5 5 5 4 4 3 3 3 3 2 2 1 2 2 2 2 2 3 3 4 5 5 6 6 5 6 6 5 4 5 5 6 6 5 6 5 7 3 2 4 4 4 5 5 6 6 6 6 5 3 4 5 6 5 5 4 5 5 5 5 5 5 4 3 3 3 4 3 3 4
7 7 8 7 6 6 7 9 7 5 5 5 5 5 5 5 6 5 5 4 3 3 3 4 3 2 1 1 3 3 3 3 4 5 6 6 6 6 6 5 6 5 6 5 6 6 5 2 2 1 1 1 3 4 6 6 6 5 6 5 5 5 5 6 6 5 6 5 5 5 4 4 5 6 5 6 6 5 5 5 4 3 2 2 3
7 8 7 7 6 5 5 5 4 4 5 6 6 5 4 4 4 4 4 3 3 3 3 3 2 3 3 3 4 4 4 4 4 4 4 4 4 6 7 5 6 6 5 7 7 5 2 1 2 2 3 4 4 5 5 6 6 6 6 5 5 5 5 5 6 6 6 5 5 5 5 5 6 6 7 7 6 6 5 5 5 4 4 4 5
8 8 7 7 7 6 6 6 5 4 5 4 5 5 6 6 5 3 4 4 5 5 5 3 2 2 1 2 2 2 3 3 6 8 7 5 5 7 8 8 7 7 10 12 7 3 2 2 3 4 4 4 5 5 5 5 6 7 7 8 8 7 7 7 7 7 7 7 7 7 6 6 7 6 6 6 5 5 6 6 4 4 4 3 4
7 7 7 7 6 5 5 4 3 3 3 4 4 3 3 3 7 8 6 5 4 4 5 5 6 7 4 1 2 0 3 5 6 7 7 8 7 6 6 6 7 8 8 6 3 1 3 3 4 5 5 5 6 6 6 6 6 7 7 7 8 8 8 8 8 7 7 7 8 7 7 7 7 6 6 5 5 5 5 5 5 5 4 3 3
6 7 7 6 5 5 4 4 3 3 3 2 2 3 3 2 3 2 2 3 3 3 3 3 3 4 6 5 3 0 3 0 7 7 8 7 8 8 8 6 5 6 7 6 1 4 4 4 5 5 5 5 6 5 6 6 6 7 7 7 8 8 8 8 7 6 6 6 6 6 6 6 6 6 5 5 4 4 4 5 5 4 3 3 3
7 7 6 5 6 6 5 5 4 4 4 4 4 4 4 4 4 2 2 1 2 3 2 1 2 2 3 5 5 2 3 7 8 7 7 7 6 7 7 6 7 5 6 1 4 4 4 4 5 5 5 5 6 6 6 7 7 7 7 7 7 7 7 6 5 7 7 7 6 6 6 6 5 5 5 5 5 4 4 4 3 3 3 2 2
6 6 5 5 5 4 4 4 3 3 3 2 3 3 4 4 4 4 2 1 3 2 4 3 3 3 2 3 3 3 4 5 6 5 5 5 5 6 6 3 6 9 7 5 4 5 5 6 6 6 6 6 6 6 6 6 6 6 6 7 6 6 6 5 6 6 6 6 6 6 6 5 5 5 4 4 3 3 3 3 3 3 3 2 2
5 7 8 5 4 4 4 3 3 3 3 3 3 3 3 2 3 3 3 4 4 2 1 3 3 1 1 2 4 4 4 4 4 4 3 2 3 6 8 2 3 5 5 6 5 6 6 6 6 6 6 6 6 6 6 6 6 6 6 5 5 5 5 6 6 6 6 6 6 6 6 6 6 6 5 5 4 4 3 3 3 3 3 3 3
6 5 5 5 4 4 4 3 3 3 3 3 2 3 4 4 4 3 3 3 4 3 2 2 2 4 3 2 1 2 4 5 5 5 4 3 3 6 1 3 4 4 5 5 6 6 6 6 6 6 6 6 5 6 6 6 6 6 5 5 5 5 5 5 6 6 6 6 6 6 5 5 5 4 3 2 2 2 2 2 2 2 2 2 3
6 5 5 5 5 4 4 3 2 2 1 1 2 3 3 4 4 4 4 4 4 4 3 1 3 3 3 3 4 2 1 2 5 6 5 4 5 3 1 2 4 4 5 5 5 5 6 6 6 6 6 5 5 5 5 5 5 5 5 5 5 5 5 5 5 4 4 4 4 4 4 4 4 4 4 3 3 3 3 3 3 2 2 2 3
5 5 5 5 4 3 3 3 4 3 2 3 2 2 3 3 3 3 4 3 4 4 4 2 3 4 4 4 6 4 3 3 3 3 3 2 1 1 2 3 3 4 4 4 4 5 5 5 5 5 5 5 5 4 4 4 4 4 4 4 5 5 5 5 5 5 5 4 4 4 4 4 3 3 3 3 3 3 3 3 3 3 3 2 3
3 3 1 3 2 3 3 3 3 3 3 3 3 4 4 5 5 4 4 4 4 4 4 4 4 4 4 3 4 4 4 4 3 1 1 1 1 1 2 3 3 4 4 4 4 4 4 4 4 4 4 4 4 4 4 4 4 4 3 3 3 3 2 3 3 3 3 3 3 3 3 3 3 3 3 3 3 3 2 2 3 2 3 2 2
4 3 3 1 2 2 3 3 3 4 4 4 4 4 4 5 6 5 5 5 5 4 5 5 5 5 3 4 4 4 5 4 2 2 2 2 2 2 2 3 3 4 4 4 4 4 4 4 4 4 4 3 3 3 3 3 2 3 2 2 2 3 3 3 3 3 3 3 3 3 4 4 4 3 3 3 2 2 3 3 2 2 3 3 3
4 4 3 3 3 3 3 3 3 4 4 4 5 5 5 5 5 6 7 8 7 7 7 6 6 5 3 4 3 4 5 4 3 3 3 3 3 3 3 3 4 4 4 4 4 3 4 4 3 3 3 3 2 2 2 2 2 2 2 2 2 3 3 3 3 3 3 3 4 4 4 4 3 3 3 3 2 3 2 2 2 2 2 2 2
5 5 5 5 4 4 5 5 5 4 4 4 4 4 5 5 5 6 6 7 8 8 9 9 7 6 2 6 7 7 6 5 4 4 4 4 4 4 3 3 3 3 4 4 4 3 3 3 3 2 2 2 2 2 1 2 2 2 2 1 2 2 2 3 3 4 4 4 4 5 5 5 5 4 3 4 3 2 2 2 2 2 2 2 2
5 5 5 4 5 5 5 5 5 5 5 6 5 5 5 5 5 5 6 6 6 7 8 10 10 7 2 5 5 5 6 5 4 4 4 4 4 5 5 4 4 4 4 4 4 3 3 3 3 3 3 3 3 2 2 2 2 2 2 2 2 2 2 3 3 4 5 5 5 5 6 5 4 4 4 4 3 3 3 3 3 3 3 3 3
4 4 4 4 5 5 4 5 5 5 5 6 6 6 6 6 6 6 6 6 6 6 7 8 9 8 4 3 4 6 7 6 5 6 6 6 6 6 5 5 5 5 5 4 4 3 3 3 3 3 3 3 3 3 3 2 2 2 2 1 2 3 3 3 4 5 6 6 5 5 5 4 4 4 4 3 3 3 3 3 3 3 3 3 3
3 3 3 4 4 4 5 5 5 5 6 6 6 6 6 6 6 6 6 7 7 7 7 8 8 8 7 4 6 7 8 7 6 5 6 6 6 6 6 6 5 5 5 4 4 3 3 3 3 3 3 3 3 2 2 2 2 2 2 2 2 3 4 4 5 6 6 6 5 5 5 4 4 4 4 4 4 4 4 3 3 3 3 3 3
4 4 3 3 4 4 5 5 6 6 6 7 7 7 7 7 7 7 8 8 8 8 8 9 9 9 8 6 5 6 6 5 6 7 7 7 6 6 6 6 6 5 5 5 4 3 3 3 3 3 3 3 2 2 2 2 2 2 2 2 3 3 4 4 5 6 5 5 5 4 4 4 4 4 4 5 4 4 4 4 3 3 3 4 3
4 4 4 4 4 4 5 5 5 6 6 6 7 7 7 7 7 7 7 7 8 8 8 8 8 8 8 7 6 6 6 7 7 8 8 8 8 7 6 6 6 5 5 4 4 4 4 3 3 3 3 2 2 1 1 1 1 1 2 3 3 3 4 5 6 5 5 5 4 4 4 5 5 4 4 3 3 3 3 3 3 3 3 3 4
4 4 4 4 4 4 5 5 5 5 5 6 6 6 6 7 7 7 7 7 7 7 8 8 8 8 7 6 5 4 3 2 1 4 5 5 5 4 4 4 4 4 4 4 4 3 3 3 3 3 2 2 1 1 1 1 1 1 2 2 3 4 5 5 5 5 5 6 5 5 5 5 4 4 3 3 3 3 3 3 3 3 3 4 4
5 5 5 5 5 5 5 5 5 5 5 5 5 6 6 6 6 6 6 6 6 6 6 7 7 7 6 5 3 3 2 3 5 6 5 5 5 5 4 4 4 3 4 4 3 3 3 3 3 3 2 1 1 1 2 2 1 1 1 2 4 6 4 4 6 5 7 5 4 4 4 3 3 3 3 3 3 3 3 3 3 4 4 4 3
5 5 5 5 5 5 4 4 5 5 5 5 5 5 6 6 5 6 6 6 6 6 6 5 5 5 4 3 2 2 3 5 6 5 5 4 4 3 3 2 2 3 3 3 3 3 3 3 3 2 1 0 0 1 3 2 2 1 2 2 7 3 3 3 4 4 6 5 5 4 4 3 3 3 3 3 3 3 3 3 4 4 4 4 4
5 5 5 5 5 4 5 5 5 5 5 6 6 6 6 6 6 6 6 5 5 5 5 6 5 4 3 2 4 5 6 6 6 6 5 3 3 3 2 1 2 2 3 3 2 2 1 1 1 1 1 0 1 3 3 2 2 2 3 7 3 1 2 2 4 4 5 7 5 4 4 4 3 3 3 3 3 3 4 4 4 4 4 4 4
Wind_Direction
196 199 197 199 195 194 195 194 202 204 209 207 216 217 219 220 221 228 217 222 223 223 223 230 235 239 246 249 250 248 247 253 249 247 242 243 248 256 265 259 260 263 262 273 273 266 269 279 281 278 276 270 263 267 266 253 240 251 251 247 256 240 234 247 268 283 285 289 294 308 345 332 354 353 339 339 349 358 322 0 350 5 12 26 50
196 194 195 196 201 200 201 196 200 201 207 206 213 217 221 218 219 216 225 223 221 231 231 236 234 234 242 240 240 243 242 240 248 245 246 247 251 247 243 239 248 260 269 271 271 270 270 274 281 279 264 266 273 269 268 274 271 272 262 261 266 262 226 252 263 275 286 275 279 296 313 334 330 357 343 330 348 343 350 359 4 14 19 14 28
189 188 192 193 198 199 198 199 200 203 208 210 214 218 215 219 215 222 228 227 217 226 230 235 232 232 238 240 236 242 237 245 244 242 246 248 254 264 270 265 262 267 265 264 268 270 267 268 273 276 272 267 262 264 270 272 277 278 279 277 275 273 241 229 257 269 279 287 292 284 315 338 329 336 324 326 319 337 336 2 2 19 21 17 24
187 189 194 199 199 198 198 201 205 209 211 211 211 212 215 214 211 223 229 231 226 215 223 232 227 222 234 234 234 239 237 238 241 241 241 248 254 257 261 261 266 268 271 275 276 272 273 274 274 279 281 274 270 272 265 265 267 268 273 269 263 272 259 233 232 255 275 284 280 299 321 321 323 316 314 305 316 7 351 358 18 27 10 21 42
192 194 197 200 198 199 201 203 206 208 212 214 212 208 208 212 211 220 227 234 235 230 214 217 220 222 233 235 236 237 240 240 237 243 244 245 248 256 261 259 260 260 265 270 273 272 272 271 275 273 269 269 270 266 271 266 265 269 270 263 261 262 256 245 237 235 250 263 278 276 285 284 294 297 309 321 316 283 319 356 21 31 14 17 38
188 193 201 205 203 204 204 204 206 206 208 211 216 215 209 211 212 212 223 230 232 236 236 231 221 220 229 242 247 248 248 244 242 249 253 250 245 251 253 256 259 257 258 260 261 263 268 271 273 271 267 268 275 278 275 275 268 263 266 268 266 263 260 248 241 239 241 256 265 270 253 288 296 291 303 304 310 332 344 359 44 50 22 27 33
184 188 193 202 208 211 210 208 208 209 205 208 206 216 221 219 219 220 216 224 230 235 233 234 227 236 235 241 248 246 245 248 245 246 251 250 246 247 253 249 251 254 256 258 261 261 263 266 268 264 265 265 273 276 277 273 271 275 272 269 263 256 252 246 238 242 245 252 251 250 274 262 258 282 259 275 272 309 341 348 5 49 45 19 31
186 190 193 197 204 207 210 210 206 204 199 197 200 210 221 226 224 225 222 222 230 235 242 242 239 241 247 248 249 245 238 240 238 240 244 246 244 242 243 252 257 258 253 254 255 256 258 265 269 265 259 258 260 269 270 270 272 273 268 264 263 258 259 257 249 250 250 247 250 259 254 276 261 257 249 241 249 235 326 337 347 348 26 39 31
190 191 191 195 199 199 196 201 202 199 197 197 203 207 213 222 223 224 220 230 233 235 237 245 257 260 255 249 252 252 250 245 243 238 239 240 244 252 252 252 253 256 257 263 257 250 249 259 265 269 270 259 257 260 271 281 282 276 268 259 261 263 263 261 254 254 250 250 251 234 241 249 255 259 261 255 270 318 318 312 316 305 321 202 103
194 196 197 202 201 193 191 192 197 201 199 200 203 205 211 219 221 219 225 228 231 235 241 247 257 258 254 248 246 251 256 247 254 246 264 271 269 268 264 261 262 261 256 257 259 254 253 253 254 251 252 252 256 256 252 248 241 260 277 275 268 266 266 265 261 256 257 250 248 247 249 249 254 234 260 258 245 244 260 280 301 339 304 252 136
198 202 209 210 208 210 205 199 194 198 201 204 204 202 207 212 217 218 219 224 238 246 261 270 274 270 264 260 256 247 265 36 27 22 10 338 283 268 263 260 254 254 254 253 256 259 260 261 267 256 241 246 247 243 246 249 251 238 243 253 263 271 276 269 262 257 253 252 251 252 256 259 262 261 250 263 248 272 305 297 295 302 294 288 254
191 184 176 111 46 270 233 218 216 212 204 209 208 204 205 212 221 228 211 158 126 127 87 78 43 355 334 310 295 6 70 42 48 42 32 16 360 301 276 271 266 258 254 256 258 262 267 270 270 270 260 257 266 252 240 247 244 245 250 248 247 245 251 261 272 271 259 257 253 252 256 251 251 237 255 256 259 250 261 282 270 280 291 257 234
152 97 91 109 118 110 343 289 242 211 236 233 211 198 201 164 167 130 100 84 67 39 5 357 60 47 43 65 85 96 87 45 46 62 61 48 20 319 287 289 284 278 275 269 268 268 270 273 276 277 275 254 252 351 23 323 293 275 260 256 252 248 242 242 244 251 268 265 265 257 244 253 248 240 240 259 255 276 270 268 236 255 261 252 234
145 141 145 151 132 137 122 110 294 19 51 44 339 277 138 121 124 126 131 132 138 156 197 211 173 148 94 66 60 64 59 25 18 31 41 22 4 299 278 290 284 285 285 283 283 282 282 281 280 280 283 284 113 165 189 210 242 267 262 253 251 243 234 230 235 237 243 255 256 257 255 232 245 242 203 198 231 270 292 304 280 268 233 208 116
158 162 154 133 125 127 138 137 112 82 89 96 93 42 360 70 75 69 61 55 156 162 193 218 123 97 90 86 89 77 62 17 16 15 14 6 338 290 321 299 286 282 283 282 283 285 286 286 282 281 286 269 202 220 222 219 216 243 263 271 266 261 250 242 232 228 226 232 244 247 257 240 236 222 197 209 239 261 294 306 311 297 139 150 173
169 157 139 136 149 151 144 139 152 153 136 118 116 137 161 170 147 141 150 168 169 179 209 244 248 220 94 49 56 77 63 25 359 8 0 351 319 311 336 314 301 301 299 301 302 299 294 293 295 291 289 282 248 220 222 222 219 230 245 254 261 258 250 158 38 3 319 277 265 284 307 9 33 1 10 312 215 232 238 215 179 175 187 194 203
144 153 139 137 139 144 141 138 137 129 109 118 136 173 163 128 142 182 173 148 149 149 152 280 340 314 301 291 290 79 57 25 11 7 360 345 315 326 308 303 297 294 297 295 294 294 293 296 300 299 294 291 278 220 224 227 236 235 237 244 251 254 242 183 175 173 129 87 48 34 24 27 360 351 267 274 269 284 234 216 207 193 201 222 208
115 104 111 119 121 124 132 138 130 125 138 148 162 173 149 139 152 175 177 166 166 213 282 39 48 40 46 45 41 73 53 39 25 20 14 358 326 322 320 308 306 301 301 308 310 304 303 304 299 301 304 308 338 282 303 271 253 248 245 252 255 259 262 259 235 176 137 114 55 52 42 350 284 267 256 215 213 233 216 241 210 213 228 231 240
15 66 88 104 109 105 111 112 116 118 133 150 154 139 137 142 158 221 155 96 83 79 90 88 87 76 71 68 68 80 70 45 28 23 20 14 359 350 350 331 329 341 338 330 329 321 329 329 38 44 26 25 37 45 46 345 261 261 256 257 255 251 261 264 287 309 320 131 93 68 154 199 268 260 195 192 202 223 243 261 221 222 236 261 243
40 51 49 54 66 75 81 95 101 115 115 99 91 80 91 96 89 77 72 75 82 80 80 79 78 71 68 67 64 65 71 61 40 30 30 25 12 4 17 14 3 346 343 336 325 320 321 315 349 49 46 48 54 58 82 109 226 296 297 248 249 251 63 40 14 320 237 26 64 59 171 253 247 247 232 198 197 213 223 224 225 248 231 209 210
62 69 71 60 59 72 73 80 85 88 100 110 110 102 87 83 70 56 51 66 77 75 75 75 72 70 69 69 68 65 60 56 54 40 38 35 25 17 26 16 358 339 333 326 331 334 334 331 322 59 52 88 82 62 20 11 359 285 285 234 212 112 101 109 122 310 284 27 51 26 3 228 217 232 237 220 214 188 170 111 112 114 244 184 125
41 58 62 74 65 49 65 69 68 69 61 69 79 81 85 90 94 99 89 83 83 81 81 87 93 89 80 73 63 57 51 43 29 66 41 35 32 19 14 16 359 330 325 323 328 328 326 325 315 22 21 321 284 162 123 85 11 335 6 356 348 356 77 101 90 81 28 291 39 39 16 9 232 196 262 249 206 165 150 132 97 82 56 54 63
66 63 65 62 68 62 56 67 65 63 73 83 88 91 98 101 105 108 109 104 101 103 103 103 104 100 102 92 71 62 41 46 26 28 54 41 36 25 10 351 332 319 320 310 318 310 308 310 306 322 327 294 278 288 62 91 94 88 357 339 326 286 224 169 161 160 158 156 150 134 100 55 87 97 90 58 23 343 115 90 97 93 82 71 59
75 74 68 64 60 57 59 62 62 54 56 64 77 86 89 92 92 94 102 106 108 104 106 113 122 129 114 102 99 65 44 14 39 26 19 24 22 18 6 349 332 333 311 291 295 299 294 293 308 324 314 302 291 282 269 221 173 126 54 327 285 270 248 210 174 155 168 167 173 178 177 178 163 129 107 72 99 78 82 96 85 84 89 90 81
72 75 76 69 61 61 55 52 51 54 46 53 65 66 76 81 86 85 95 94 97 100 100 97 95 89 93 97 86 70 38 358 355 16 0 354 357 2 351 343 331 333 305 288 280 294 307 301 293 283 281 280 277 276 260 237 211 171 159 177 242 19 5 335 313 215 170 197 186 169 150 147 130 114 102 97 91 89 80 85 87 89 87 83 76
70 69 70 67 58 61 67 61 57 51 48 47 49 39 52 64 79 83 87 88 89 90 90 99 97 89 95 71 38 1 353 331 342 350 346 339 332 356 324 306 335 330 304 287 295 289 283 280 272 265 265 262 255 235 234 227 213 165 156 161 160 183 186 218 237 218 181 144 130 126 102 93 91 80 73 80 74 82 126 125 118 109 119 114 111
73 71 70 72 68 64 67 69 69 62 55 58 54 49 40 45 53 55 59 65 82 85 92 100 95 82 52 13 354 330 306 331 338 344 349 343 340 340 341 339 339 330 322 325 318 315 318 314 348 338 326 335 319 163 141 144 136 131 159 186 198 201 217 230 208 129 119 113 108 102 98 100 92 76 63 68 67 39 27 151 151 130 130 120 110
75 75 76 71 65 67 72 68 66 60 48 43 46 49 46 45 54 44 34 20 30 45 34 41 31 18 357 348 331 332 343 341 3 360 349 345 340 334 334 333 336 339 327 330 326 316 313 298 231 212 161 145 96 75 70 72 80 84 89 101 107 103 93 83 69 59 74 83 93 100 97 83 83 78 73 63 56 42 22 33 50 74 65 105 96
84 84 83 84 82 83 84 81 78 83 87 76 62 37 27 42 63 71 41 13 358 13 50 52 29 12 5 6 348 348 342 348 15 19 338 341 314 318 322 327 328 314 317 320 306 286 256 81 64 70 67 76 74 69 72 75 73 67 70 72 82 74 59 57 61 49 42 63 66 66 68 72 75 75 76 68 53 42 25 49 37 45 45 51 74
77 73 69 67 65 64 63 63 56 53 62 77 96 88 43 22 8 41 80 52 44 14 343 42 11 354 41 57 9 346 340 347 358 344 328 311 283 265 274 287 282 282 294 302 282 297 52 53 48 48 56 59 58 66 60 59 61 60 56 48 49 48 51 53 54 56 56 59 60 56 49 51 55 55 62 65 61 53 41 46 55 43 66 76 91
75 74 72 68 66 64 64 67 64 57 53 51 52 76 117 85 34 34 62 80 77 52 45 33 25 11 354 69 95 209 323 1 343 320 324 329 315 313 308 299 293 287 287 302 250 44 57 67 69 63 55 62 62 64 64 60 57 59 57 51 47 45 44 44 35 41 49 54 53 51 48 51 51 47 53 51 51 46 43 40 48 49 52 53 61
65 59 61 65 64 58 60 64 60 63 66 55 47 36 32 89 119 14 14 100 94 79 81 62 33 39 33 20 2 118 171 37 344 332 327 330 340 344 344 334 314 297 298 271 344 56 52 64 65 56 54 58 56 56 60 65 62 62 62 60 52 46 47 45 25 35 44 50 53 52 50 51 51 45 43 40 47 50 43 42 39 39 42 48 52
73 72 67 60 55 49 47 44 42 34 36 34 38 21 24 19 27 97 159 191 132 137 113 128 132 91 80 61 43 31 312 313 319 329 336 343 354 350 345 30 31 1 288 338 66 62 59 58 60 57 56 62 60 59 56 57 60 59 59 61 62 55 53 46 45 59 55 51 51 48 50 55 55 58 55 47 42 43 34 39 33 34 27 20 41
67 66 64 62 60 58 51 43 41 45 41 31 25 21 19 10 8 352 351 149 168 180 182 171 156 166 113 76 44 4 345 326 326 325 331 337 327 316 322 24 56 37 29 60 65 73 69 70 65 62 61 61 63 65 65 64 64 65 67 67 67 62 53 49 53 52 52 53 57 54 49 48 42 40 40 37 43 50 49 44 36 26 19 1 341
69 74 68 56 50 51 48 48 42 34 38 31 24 16 13 360 339 337 341 337 332 324 143 154 156 147 55 115 46 17 17 20 22 28 36 21 323 301 295 271 66 64 57 60 63 69 72 70 69 64 64 64 60 61 63 58 58 60 61 64 63 60 59 55 54 46 49 51 49 44 39 39 39 35 31 24 14 14 17 16 16 13 357 334 331
38 37 41 45 44 43 40 36 26 27 17 14 360 356 353 344 337 330 313 308 303 296 274 184 149 135 142 47 102 53 46 44 52 50 38 13 310 291 287 80 79 74 74 67 72 71 72 73 76 76 74 74 70 68 65 64 60 60 54 57 58 55 53 56 55 55 53 54 55 46 41 40 33 24 21 23 14 360 358 2 358 356 338 328 332
31 30 28 26 19 17 18 14 30 28 3 329 342 336 333 335 338 329 321 307 299 297 295 205 183 165 186 164 143 127 150 82 86 71 44 23 315 273 64 86 90 95 89 85 83 86 83 79 77 80 77 78 77 75 76 78 79 78 73 65 62 64 61 51 49 53 57 59 54 52 49 45 27 16 355 342 345 355 342 339 328 327 314 340 309
42 33 30 16 11 15 5 360 1 342 336 341 326 317 320 325 325 328 325 313 306 297 290 249 218 243 215 196 183 191 156 202 217 165 162 216 223 93 93 97 103 101 98 93 89 93 92 89 85 82 81 81 80 78 76 71 66 64 69 74 71 67 70 77 64 58 54 47 42 34 22 19 12 0 347 338 330 331 334 327 325 321 323 309 298
67 103 32 323 359 1 3 350 357 347 352 336 334 328 327 325 323 325 321 317 309 299 295 290 272 260 249 190 183 165 173 211 216 200 89 85 83 114 112 120 115 110 102 103 101 95 94 90 85 79 76 74 75 71 66 66 64 66 63 72 82 92 84 68 70 55 45 40 32 18 2 349 345 351 342 325 315 315 317 317 311 310 307 300 289
19 21 78 1 3 20 351 358 355 352 359 348 345 338 323 319 315 310 304 303 301 297 296 291 286 280 260 195 204 196 234 234 218 184 172 153 149 143 152 135 122 117 116 107 100 94 94 88 83 84 79 71 62 64 64 71 80 86 81 59 68 75 64 51 47 40 31 21 10 0 352 342 333 328 317 307 312 326 322 315 319 306 299 304 307
4 11 1 34 26 342 6 358 9 6 357 352 344 336 335 328 319 314 308 302 297 293 287 282 277 275 246 212 190 215 238 232 197 182 177 167 157 155 144 131 126 121 116 108 99 91 83 83 80 74 71 69 69 65 64 70 79 78 79 86 77 68 66 59 41 32 9 347 343 342 340 333 328 320 328 340 335 301 300 290 281 279 285 283 288
2 356 353 353 353 348 346 344 350 348 339 336 330 332 329 323 317 310 309 304 302 298 294 290 288 282 177 167 199 207 228 228 200 180 166 164 156 145 134 122 113 109 111 106 100 97 91 85 74 66 64 60 60 58 59 62 63 71 71 39 17 8 357 3 8 7 354 354 345 342 339 336 328 316 315 306 297 301 288 280 280 269 263 271 285
352 348 345 341 336 340 337 337 334 330 329 328 328 325 314 310 306 305 296 295 297 299 297 293 289 286 241 187 209 212 227 217 189 179 167 160 155 143 144 139 131 117 109 104 97 91 86 79 68 56 53 45 37 31 32 25 33 22 23 28 19 14 1 356 357 347 341 341 339 336 324 324 319 322 323 318 318 311 310 309 305 306 305 297 296
345 340 339 335 339 334 336 336 331 329 328 328 321 316 318 312 308 302 301 302 301 296 292 291 293 287 265 163 178 212 221 208 188 181 168 165 162 158 150 143 137 132 124 115 104 98 93 91 84 76 71 67 59 48 43 43 17 21 24 28 35 18 354 351 343 341 339 338 335 325 322 326 323 314 319 320 314 310 305 311 304 306 306 305 304
339 340 337 329 334 330 329 329 327 322 319 313 310 312 310 311 309 309 306 304 303 301 298 296 294 284 269 216 199 212 215 205 182 162 165 163 154 151 146 140 139 137 129 120 112 111 103 101 100 101 98 88 80 60 56 47 32 20 27 11 1 1 355 349 345 339 333 330 327 328 327 322 322 319 316 315 314 308 309 313 314 312 294 290 291
352 347 343 337 332 327 324 325 326 320 316 314 312 309 310 309 308 309 308 306 305 304 303 301 296 291 283 264 225 211 207 192 188 181 164 160 153 145 141 143 137 134 126 120 119 112 103 102 108 111 108 102 93 54 61 78 63 68 48 25 2 352 351 351 348 342 337 335 331 325 323 318 315 318 321 311 309 312 310 308 302 296 298 294 296
17 10 0 352 346 333 330 329 325 331 326 326 323 320 315 314 314 309 303 307 308 305 303 303 304 297 292 278 250 219 202 202 193 184 169 158 152 143 135 136 135 127 123 124 124 123 122 120 114 115 120 106 71 64 41 45 76 38 25 22 26 7 9 356 347 341 341 336 329 322 325 320 316 314 316 306 298 296 297 296 296 295 293 290 295
29 22 19 6 354 350 350 346 344 340 336 336 332 326 325 324 322 320 320 318 315 316 314 314 309 307 303 295 281 264 246 244 169 142 117 94 85 87 104 116 121 118 116 115 113 113 120 124 124 129 122 116 87 35 8 340 343 82 88 54 33 35 33 354 340 347 350 335 324 323 327 321 327 323 320 309 300 307 304 299 297 295 293 295 299
34 29 22 22 20 14 13 6 1 359 356 346 340 338 343 338 335 333 332 331 332 335 334 332 332 325 317 315 333 34 52 49 26 21 35 63 76 77 79 78 88 107 114 118 123 126 122 131 143 155 142 142 116 4 339 315 253 178 94 5 79 83 69 12 330 360 321 300 318 322 321 321 316 308 302 298 300 294 292 288 282 285 287 288 294
39 34 32 29 26 23 18 13 9 8 4 360 356 354 350 348 349 349 347 347 348 350 347 344 335 332 333 348 8 44 90 86 81 75 64 63 68 63 64 73 95 98 113 121 125 135 143 145 161 169 176 172 280 333 328 303 253 226 305 60 104 98 67 355 305 339 324 333 316 318 326 320 306 293 286 282 274 278 273 276 289 293 292 294 289
35 32 32 27 23 20 16 14 12 11 9 6 1 360 353 355 356 357 353 352 356 358 359 357 356 356 8 46 72 84 89 95 97 103 96 64 33 49 54 77 98 96 79 78 91 111 130 151 178 201 227 225 313 335 325 287 234 274 59 93 139 151 110 335 339 357 333 310 308 314 312 317 301 298 291 288 285 290 299 301 299 298 295 298 302